Rbgn^[z[y[W
メイン
   新天体発見情報
     Comet C/2017 D3 (ATLAS)
投稿するにはまず登録を

スレッド表示 | 新しいものから 前のトピック | 次のトピック | 下へ
投稿者 スレッド
佐藤裕久
投稿日時: 2017-3-9 0:01
モデレータ
登録日: 2005-6-12
居住地: 日本
投稿: 2505
オンライン
Comet C/2017 D3 (ATLAS)

Henry Weiland (ハワイ大学)の通報によると、"Asteroid Terrestrial-impact Last Alert System" (ATLAS)
チームは、HaleakalaにあるATLAS 0.5-m f/2.0 Schmidt望遠鏡で得た4枚のc-バンド露出により彗星を発見
した。4スタック露出でこの彗星の大きさは7".7(近くの恒星の大きさより大きい)であった。
小惑星センターのPCCP webpageに公表後、C. Jacques、E. PimentelとJ. Barros (SONEAR 天文台, 0.45-m 
f/2.9 反射望遠鏡)や佐藤英貴氏(東京都文京区, iTelescope天文台, 0.51-m f/6.8 アストログラフ+輝度
フィルター, Siding Spring, 遠隔操作)らCCD位置観測者によって彗星状と観測された。

発見位置は次のとおり、

     2017 UT             R.A. (2000) Decl.       Mag.
     Feb. 23.60692   13 25 53.87   -35 31 25.1   18.0
          23.62203   13 25 53.12   -35 31 17.9   18.1
          23.63716   13 25 52.33   -35 31 12.5   17.9
          23.65233   13 25 51.48   -35 31 07.3   18.0

暫定放物線軌道要素と位置推算表は次のとおり、

Orbital elements:
    C/2017 D3 (ATLAS)
T 2017 Apr. 29.52635 TT                                 MPCW
q   4.9673643            (2000.0)            P               Q
                   Peri.  341.10991     -0.91820828     -0.38494964
                   Node   186.59453     -0.16705419     +0.16275067
e   1.0            Incl.  125.65590     -0.35914685     +0.90847454
>From 58 observations 2017 Feb. 10-28.

Ephemeris:
    C/2017 D3 (ATLAS)
Date    TT    R. A. (2000) Decl.     Delta      r     Elong.  Phase   m1
2017 01 30    13 41 56.6 -37 13 08   4.8804  5.0151    92.2    11.3  18.4
...
2017 02 14    13 33 31.6 -36 22 23   4.6096  5.0005   107.8    10.8  18.3
...
2017 02 22    13 27 17.6 -35 41 05   4.4743  4.9938   116.4    10.2  18.2
...
2017 02 28    13 21 52.2 -35 02 14   4.3801  4.9893   123.0     9.6  18.2
2017 03 01    13 20 54.5 -34 55 03   4.3651  4.9886   124.1     9.5  18.2
2017 03 02    13 19 55.9 -34 47 39   4.3504  4.9879   125.2     9.3  18.2
...
2017 03 08    13 13 46.1 -33 58 46   4.2672  4.9839   131.8     8.5  18.1
...
2017 03 16    13 04 52.7 -32 41 14   4.1722  4.9792   140.4     7.3  18.1
...
2017 03 31    12 47 04.5 -29 38 15   4.0534  4.9726   154.3     5.0  18.0

(CBET 4367、MPEC 2017-E06)

スレッド表示 | 新しいものから 前のトピック | 次のトピック | トップ

投稿するにはまず登録を
 
© 1999 Tsutomu Seki.